Вернуться в каталог

TEMPSAT 2

АктивенНаукаLEO
NORAD 4168·PAYLOAD·🇺🇸 United States

Запущен Sep 30, 1969 с Vandenberg Space Force Base

Loading…

Ближайшие Пролёты (ближайшие 24 часа)

TLE

СвежийSource: Space-Track

Эпоха: Sep 14, 2026, 11:42 UTC

1 04168U 69082H   26257.48814021 -.00000012  00000-0  29559-4 0  9992
2 04168  70.0119 267.2146 0019774   1.5526 358.5638 13.96025051900553

Отслеживайте TEMPSAT 2 в реальном времени с AllMySat

Download on the App Store